Stations météo

réclame
Mon MeteoGroup
Liscombe, Grande-Bretagne (3710): Température de l'air & dewpoint: 21.02.2020 01:00:00 - 27.02.2020 01:00:00 (GMT)Liscombe, Grande-Bretagne (3710): Température de l'air -20cm & Température de l'air -100cm: 21.02.2020 01:00:00 - 27.02.2020 01:00:00 (GMT)Liscombe, Grande-Bretagne (3710): Vitesse du vent & gusts: 21.02.2020 01:00:00 - 27.02.2020 01:00:00 (GMT)Liscombe, Grande-Bretagne (3710): Direction du vent: 21.02.2020 01:00:00 - 27.02.2020 01:00:00 (GMT)Liscombe, Grande-Bretagne (3710): reduced air pressure: 21.02.2020 01:00:00 - 27.02.2020 01:00:00 (GMT)Liscombe, Grande-Bretagne (3710): visibility: 21.02.2020 01:00:00 - 27.02.2020 01:00:00 (GMT)Liscombe, Grande-Bretagne (3710): Ensoleillement: 21.02.2020 01:00:00 - 27.02.2020 01:00:00 (GMT)Liscombe, Grande-Bretagne (3710): Quantités de précipitations: 21.02.2020 01:00:00 - 27.02.2020 01:00:00 (GMT)
Date & Time tt [°C] td [°C] tt -20cm [°C] tt -100cm [°C] ff [km/h] ff [knt] fx [km/h] fx [knt] dd ppp [hPa] vv [km] sd [min] rr [mm]
27.02.2020 01:00:00 1,7 1,5 - - 13 7 - - SSE 1000,9 5 0 1,0
27.02.2020 00:00:00 2,1 1,7 - - 15 8 - - S 1003,2 5 - 0,8
26.02.2020 23:00:00 2,1 1,3 - - 15 8 - - S 1005,3 4,8 0 0,0
26.02.2020 22:00:00 2,0 1,1 - - 11 6 - - SSW 1006,7 25 0 0,0
26.02.2020 21:00:00 1,8 0,5 - - 9 5 - - SSW 1007,9 28 0 0,2
26.02.2020 20:00:00 2,2 -0,4 - - 15 8 - - SW 1008,7 30 0 0,0
26.02.2020 19:00:00 2,2 -0,3 - - 11 6 - - WSW 1009,5 30 0 0,0
26.02.2020 18:00:00 2,3 -0,4 - - 9 5 - - W 1009,6 29 0 0,0
26.02.2020 17:00:00 3,0 -0,7 - - 18 10 - - W 1009,9 30 12 0,0
26.02.2020 16:00:00 4,1 -1,1 - - 22 12 - - W 1010,1 35 24 0,0
26.02.2020 15:00:00 4,1 -0,7 - - 24 13 - - WNW 1009,8 30 36 0,0
26.02.2020 14:00:00 5,7 0,4 - - 26 14 48 26 WNW 1009,8 29 36 0,0
26.02.2020 13:00:00 5,0 0,0 - - 29 16 48 26 WNW 1009,9 30 42 0,0
26.02.2020 12:00:00 5,4 0,7 - - 28 15 52 28 WNW 1009,2 30 54 0,0
26.02.2020 11:00:00 4,4 0,0 - - 26 14 55 30 WNW 1008,8 30 48 0,0
26.02.2020 10:00:00 3,9 -0,1 - - 26 14 57 31 WNW 1008,3 26 30 1,4
26.02.2020 09:00:00 3,2 -0,6 6,7 7,0 29 16 59 32 WNW 1007,6 27 12 2,0
26.02.2020 08:00:00 2,3 -0,5 - - 28 15 55 30 WNW 1006,8 23 0 0,6
26.02.2020 07:00:00 1,8 -0,8 - - 29 16 59 32 WNW 1005,6 24 0 0,4
26.02.2020 06:00:00 1,4 -1,1 - - 31 17 57 31 WNW 1005,0 30 0 0,0
26.02.2020 05:00:00 1,4 -0,7 - - 29 16 63 34 WNW 1004,2 27 0 0,0
26.02.2020 04:00:00 1,3 -1,0 - - 34 18 67 36 WNW 1003,1 28 0 0,0
26.02.2020 03:00:00 0,9 -1,1 - - 35 19 68 37 WNW 1002,2 35 0 0,0
26.02.2020 02:00:00 0,0 -0,7 - - 37 20 70 38 WNW 1001,7 40 0 0,0
26.02.2020 01:00:00 0,8 -0,2 - - 41 22 76 41 WNW 1000,9 30 0 0,4
26.02.2020 00:00:00 1,0 -0,7 - - 29 16 57 31 WNW 1000,6 23 - 0,0
25.02.2020 23:00:00 0,9 -1,8 - - 28 15 59 32 WNW 1000,6 22 0 0,0
25.02.2020 22:00:00 1,1 -2,1 - - 39 21 67 36 WNW 1000,0 30 0 0,0
25.02.2020 21:00:00 1,2 -1,1 - - 41 22 65 35 WNW 999,8 28 0 0,0
25.02.2020 20:00:00 0,5 -0,3 - - 26 14 63 34 WNW 1000,3 1,4 0 0,0
25.02.2020 19:00:00 1,7 -0,8 - - 37 20 63 34 W 999,8 30 0 0,0
25.02.2020 18:00:00 1,9 0,0 - - 41 22 72 39 W 999,4 26 6 0,0
25.02.2020 17:00:00 2,1 -0,4 - - 37 20 72 39 W 999,2 30 0 0,0
25.02.2020 16:00:00 3,2 1,1 - - 39 21 67 36 WNW 998,8 30 18 0,4
25.02.2020 15:00:00 2,2 0,9 - - 37 20 55 30 W 999,1 23 6 1,8
25.02.2020 14:00:00 0,5 0,3 - - 13 7 - - WSW 1000,4 0,3 0 0,8
25.02.2020 13:00:00 0,8 -0,2 - - 31 17 52 28 W 1001,8 1,3 0 0,6
25.02.2020 12:00:00 4,4 2,3 - - 35 19 55 30 W 1001,8 30 18 0,4
25.02.2020 11:00:00 3,0 2,0 - - 24 13 48 26 W 1002,3 30 12 0,0
25.02.2020 10:00:00 2,4 1,7 - - 26 14 48 26 W 1003,0 15 12 0,2
25.02.2020 09:00:00 2,6 1,1 7,4 6,9 18 10 - - W 1003,6 8 0 0,4
25.02.2020 08:00:00 3,3 2,6 - - 16 9 - - WSW 1003,7 7 0 0,2
25.02.2020 07:00:00 4,1 3,2 - - 26 14 48 26 W 1003,9 21 0 0,0
25.02.2020 06:00:00 3,5 2,9 - - 26 14 57 31 W 1004,6 21 0 0,4
25.02.2020 05:00:00 3,4 2,7 - - 29 16 54 29 W 1005,1 30 0 1,4
25.02.2020 04:00:00 3,5 3,2 - - 18 10 - - W 1005,6 25 0 0,4
25.02.2020 03:00:00 3,3 2,8 - - 15 8 - - WSW 1006,3 15 0 0,0
25.02.2020 02:00:00 3,1 1,6 - - 21 11 - - W 1007,2 15 0 0,0
25.02.2020 01:00:00 3,5 2,5 - - 21 11 - - W 1007,8 28 0 0,0
25.02.2020 00:00:00 4,3 3,6 - - 24 13 - - W 1007,8 23 - 0,2
24.02.2020 23:00:00 4,0 3,2 - - 28 15 48 26 W 1007,9 12 0 1,0
24.02.2020 22:00:00 5,0 3,5 - - 26 14 48 26 W 1008,0 4,6 0 0,0
24.02.2020 21:00:00 5,3 3,9 - - 26 14 - - W 1008,3 24 0 0,0
24.02.2020 20:00:00 5,7 4,5 - - 29 16 50 27 W 1008,4 24 0 0,0
24.02.2020 19:00:00 6,0 4,8 - - 31 17 57 31 W 1008,3 23 0 0,0
24.02.2020 18:00:00 6,2 5,5 - - 26 14 61 33 WNW 1007,8 16 0 0,0
24.02.2020 17:00:00 6,6 6,2 - - 44 24 74 40 W 1006,9 7 0 0,0
24.02.2020 16:00:00 7,7 6,8 - - 50 27 76 41 W 1005,9 10 0 0,2
24.02.2020 15:00:00 8,6 8,4 - - 42 23 74 40 W 1006,0 3,0 0 0,4
24.02.2020 14:00:00 9,0 8,9 - - 35 19 76 41 WSW 1006,1 4,2 0 0,6
24.02.2020 13:00:00 9,1 9,0 - - 34 18 70 38 WSW 1006,8 2,0 0 0,4
24.02.2020 12:00:00 9,0 8,9 - - 34 18 61 33 W 1008,2 4,1 0 2,8
24.02.2020 11:00:00 8,8 8,6 - - 31 17 61 33 WSW 1008,5 2,5 0 4,0
24.02.2020 10:00:00 8,7 8,5 - - 31 17 67 36 WSW 1008,9 1,3 0 4,2
24.02.2020 09:00:00 8,4 8,3 7,4 6,7 37 20 68 37 WSW 1009,5 1,1 0 3,4
24.02.2020 08:00:00 8,3 8,1 - - 37 20 63 34 SW 1010,0 1,6 0 0,4
24.02.2020 07:00:00 8,1 7,8 - - 41 22 72 39 SW 1010,8 13 0 0,2
24.02.2020 06:00:00 8,1 7,8 - - 35 19 68 37 WSW 1012,6 9 0 0,0
24.02.2020 05:00:00 8,2 7,9 - - 37 20 74 40 WSW 1013,7 9 0 0,2
24.02.2020 04:00:00 8,9 8,8 - - 29 16 50 27 WSW 1014,8 2,4 0 0,6
24.02.2020 03:00:00 7,5 7,4 - - 22 12 - - SSW 1016,4 0,1 0 1,0
24.02.2020 02:00:00 6,2 6,1 - - 16 9 - - S 1018,6 0,3 0 2,4
24.02.2020 01:00:00 5,7 5,6 - - 18 10 - - S 1019,8 0,3 0 1,6
24.02.2020 00:00:00 5,1 5,0 - - 13 7 - - SSE 1021,2 0,1 - 0,2
23.02.2020 23:00:00 4,6 4,4 - - 13 7 - - SE 1022,2 4,7 0 0,2
23.02.2020 22:00:00 4,7 4,3 - - 9 5 - - SE 1023,4 4,3 0 0,4
23.02.2020 21:00:00 5,0 4,3 - - 5 3 - - S 1023,9 12 0 1,2
23.02.2020 20:00:00 5,3 4,1 - - 0 0 - - N 1024,2 10 0 0,4
23.02.2020 19:00:00 5,6 3,9 - - 5 3 - - NW 1024,2 50 0 0,0
23.02.2020 18:00:00 6,1 4,1 - - 5 3 - - WNW 1023,1 30 0 0,0
23.02.2020 17:00:00 6,6 4,4 - - 13 7 - - WNW 1022,6 55 0 0,0
23.02.2020 16:00:00 7,7 5,3 - - 16 9 - - WNW 1021,6 55 0 0,0
23.02.2020 15:00:00 8,2 5,9 - - 22 12 - - WNW 1020,8 50 12 0,0
23.02.2020 14:00:00 8,6 5,8 - - 29 16 52 28 WNW 1020,0 40 30 0,0
23.02.2020 13:00:00 9,2 5,9 - - 35 19 59 32 WNW 1018,3 55 24 0,0
23.02.2020 12:00:00 10,0 9,3 - - 41 22 70 38 WNW 1017,3 26 12 0,0
23.02.2020 11:00:00 9,3 9,1 - - 48 26 85 46 W 1016,3 3,7 0 0,4
23.02.2020 10:00:00 10,0 9,8 - - 61 33 91 49 W 1015,4 20 0 0,6
23.02.2020 09:00:00 10,0 9,9 6,9 6,7 44 24 74 40 W 1014,4 1,5 0 1,0
23.02.2020 08:00:00 9,8 9,7 - - 39 21 78 42 W 1013,7 2,0 0 1,0
23.02.2020 07:00:00 9,6 9,5 - - 35 19 74 40 W 1013,1 1,2 0 0,8
23.02.2020 06:00:00 9,6 9,5 - - 44 24 80 43 WSW 1013,1 2,1 0 0,4
23.02.2020 05:00:00 9,5 9,4 - - 44 24 80 43 W 1013,3 3,6 0 0,4
23.02.2020 04:00:00 9,9 9,8 - - 46 25 85 46 WSW 1013,3 4,2 0 0,0
23.02.2020 03:00:00 10,6 10,6 - - 39 21 70 38 WSW 1013,8 9 0 0,2
23.02.2020 02:00:00 9,1 9,1 - - 37 20 57 31 SW 1015,1 0,3 0 0,8
23.02.2020 01:00:00 7,5 7,4 - - 28 15 - - SSW 1017,4 0,3 0 0,4
23.02.2020 00:00:00 6,6 6,5 - - 29 16 48 26 SSW 1019,4 3,9 - 0,4
22.02.2020 23:00:00 6,7 6,4 - - 26 14 - - SW 1021,5 2,3 0 0,2
22.02.2020 22:00:00 6,7 6,3 - - 21 11 - - WSW 1021,9 5 0 0,6
22.02.2020 21:00:00 6,7 6,5 - - 22 12 48 26 W 1022,3 7 0 0,8
22.02.2020 20:00:00 6,7 6,5 - - 21 11 50 27 W 1022,6 1,6 0 0,8
22.02.2020 19:00:00 6,8 6,1 - - 31 17 55 30 W 1022,5 8 0 0,2
22.02.2020 18:00:00 6,4 5,8 - - 26 14 57 31 W 1022,1 6 0 1,2
22.02.2020 17:00:00 6,5 5,8 - - 29 16 76 41 W 1021,9 4,5 0 1,2
22.02.2020 16:00:00 7,0 6,2 - - 28 15 67 36 W 1021,7 2,9 0 0,6
22.02.2020 15:00:00 7,9 5,3 - - 42 23 72 39 W 1021,3 10 0 0,0
22.02.2020 14:00:00 8,2 5,3 - - 52 28 81 44 W 1020,3 13 0 0,0
22.02.2020 13:00:00 8,9 6,1 - - 48 26 80 43 W 1019,7 12 18 0,0
22.02.2020 12:00:00 8,8 6,1 - - 54 29 76 41 W 1019,7 12 18 0,0
22.02.2020 11:00:00 8,6 6,5 - - 44 24 68 37 W 1019,3 12 0 0,0
22.02.2020 10:00:00 8,3 6,4 - - 41 22 76 41 W 1018,2 12 0 0,0
22.02.2020 09:00:00 8,2 6,1 6,4 6,7 57 31 87 47 W 1017,5 15 0 0,0
22.02.2020 08:00:00 8,7 8,6 - - 48 26 76 41 W 1016,3 5 0 0,6
22.02.2020 07:00:00 8,5 8,5 - - 39 21 70 38 W 1015,9 3,6 0 0,2
22.02.2020 06:00:00 8,3 8,2 - - 37 20 81 44 WSW 1016,0 2,9 0 0,4
22.02.2020 05:00:00 7,6 7,5 - - 39 21 68 37 WSW 1015,5 2,9 0 2,8
22.02.2020 04:00:00 7,1 6,9 - - 37 20 74 40 WSW 1015,9 1,0 0 1,6
22.02.2020 03:00:00 6,8 6,6 - - 41 22 65 35 SW 1015,9 3,1 0 0,0
22.02.2020 02:00:00 6,8 6,1 - - 37 20 63 34 WSW 1017,0 6 0 0,0
22.02.2020 01:00:00 7,1 5,3 - - 37 20 72 39 SW 1017,4 14 0 0,0
22.02.2020 00:00:00 7,1 5,0 - - 39 21 63 34 SW 1018,6 15 - 0,0
21.02.2020 23:00:00 7,1 4,9 - - 35 19 67 36 SW 1019,1 16 0 0,0
21.02.2020 22:00:00 7,2 4,7 - - 39 21 72 39 SW 1019,9 16 0 0,0
21.02.2020 21:00:00 7,1 4,7 - - 44 24 70 38 SW 1019,7 16 0 0,0
21.02.2020 20:00:00 7,1 4,6 - - 39 21 68 37 SW 1020,4 16 0 0,0
21.02.2020 19:00:00 7,1 4,6 - - 37 20 65 35 SW 1020,8 15 0 0,0
21.02.2020 18:00:00 7,1 5,1 - - 34 18 67 36 WSW 1021,1 13 0 0,0
21.02.2020 17:00:00 7,4 4,9 - - 37 20 67 36 SW 1021,5 16 0 0,0
21.02.2020 16:00:00 7,6 4,8 - - 35 19 67 36 WSW 1021,7 18 0 0,0
21.02.2020 15:00:00 7,7 5,1 - - 31 17 74 40 WSW 1021,6 17 0 0,0
21.02.2020 14:00:00 7,5 4,9 - - 31 17 70 38 WSW 1021,8 17 0 0,0
21.02.2020 13:00:00 7,1 4,9 - - 34 18 61 33 WSW 1022,2 15 0 0,0
21.02.2020 12:00:00 6,5 4,6 - - 34 18 57 31 SW 1022,8 15 0 0,0
21.02.2020 11:00:00 5,9 4,1 - - 29 16 46 25 SW 1023,4 18 0 0,0
21.02.2020 10:00:00 4,9 3,5 - - 28 15 46 25 SW 1023,9 15 0 0,0
21.02.2020 09:00:00 4,6 3,2 6,2 6,7 31 17 46 25 SW 1023,5 17 0 0,0
21.02.2020 08:00:00 3,8 3,1 - - 22 12 - - SW 1023,5 16 0 0,0
21.02.2020 07:00:00 3,4 3,1 - - 24 13 - - SW 1023,5 11 0 0,2
21.02.2020 06:00:00 3,3 3,0 - - 21 11 - - SW 1023,8 8 0 0,0
21.02.2020 05:00:00 3,1 2,7 - - 21 11 - - SW 1024,2 13 0 0,0
21.02.2020 04:00:00 2,9 2,5 - - 18 10 - - SW 1024,5 9 0 0,2
21.02.2020 03:00:00 2,9 2,1 - - 18 10 - - WSW 1024,4 16 0 0,0
21.02.2020 02:00:00 2,6 1,7 - - 18 10 - - SW 1024,6 15 0 0,0
21.02.2020 01:00:00 2,6 1,2 - - 15 8 - - SW 1024,3 17 0 0,0

tt = Température de l'air
td = dewpoint
tt -20cm = Température de l'air -20cm
tt -100cm = Température de l'air -100cm
ff = Vitesse du vent
fx = gusts
dd = Direction du vent
ppp = reduced air pressure
vv = visibility
sd = Ensoleillement
rr = Quantités de précipitations

stations d'obs. à proximité